Weather History for Wahoo, NE

Change the Weather History Date:

Tuesday, August 13, 2013

  Actual Average Record
Temperature  
Mean Temperature 69 °F -  
Max Temperature 79 °F 85 °F 99 °F (1965)
Min Temperature 59 °F 62 °F 46 °F (1964)
Cooling Degree Days 4    
Growing Degree Days 19 (Base 50)    
Moisture  
Dew Point 59 °F    
Average Humidity 75    
Maximum Humidity 94    
Minimum Humidity 43    
Precipitation  
Precipitation 0.00 in - - ()
Sea Level Pressure  
Sea Level Pressure 30.14 in    
Wind  
Wind Speed 4 mph (NNE)    
Max Wind Speed 8 mph    
Max Gust Speed -    
Visibility 10 miles    
Events      
Averages and records for this station are not official NWS values.
T = Trace of Precipitation, MM = Missing Value Source: NWS Daily Summary

Daily Weather History Graph

Daily Weather History Graph

Search for Another Location

Airport:

Trip Planner

Search our weather history database for the weather conditions in past years. The results will help you decide how hot, cold, wet, or windy it might be!

Date:

Astronomy

Aug. 13, 2013 Rise Set
Actual Time 6:33 AM CDT 8:27 PM CDT
Civil Twilight 6:04 AM CDT 8:57 PM CDT
Nautical Twilight 5:27 AM CDT 9:33 PM CDT
Astronomical Twilight 4:48 AM CDT 10:12 PM CDT
Moon 1:34 PM CDT (8/13) 11:58 PM CDT (8/13)
Length of Visible Light 14h 53m
Length of Day
13h 53m
Waxing Crescent, 42% of the Moon is Illuminated
Aug 13
Waxing Crescent
Aug 14
First Quarter
Aug 20
Full
Aug 28
Last Quarter
Sep 5
New

Hourly Weather History & Observations

Time (CDT) Temp. Dew Point Humidity Pressure Visibility Wind Dir Wind Speed Gust Speed Precip Events Conditions
12:15 AM 64.4 °F 61.7 °F 91% 30.10 in 10.0 mi North 4.6 mph - N/A   Scattered Clouds
12:35 AM 65.5 °F 62.4 °F 90% 30.10 in 10.0 mi North 3.5 mph - N/A   Mostly Cloudy
12:55 AM 65.3 °F 62.2 °F 90% 30.10 in 10.0 mi NNE 4.6 mph - N/A   Mostly Cloudy
1:15 AM 65.1 °F 62.2 °F 90% 30.10 in 10.0 mi Calm Calm - N/A   Mostly Cloudy
1:35 AM 64.8 °F 61.7 °F 90% 30.11 in 10.0 mi Calm Calm - N/A   Mostly Cloudy
1:55 AM 64.6 °F 61.9 °F 91% 30.11 in 10.0 mi North 4.6 mph - N/A   Overcast
2:15 AM 64.6 °F 61.9 °F 91% 30.11 in 10.0 mi Calm Calm - N/A   Overcast
2:35 AM 64.6 °F 62.1 °F 92% 30.11 in 10.0 mi Calm Calm - N/A   Mostly Cloudy
2:55 AM 64.0 °F 61.7 °F 92% 30.10 in 10.0 mi North 4.6 mph - N/A   Mostly Cloudy
3:15 AM 64.0 °F 61.7 °F 92% 30.11 in 10.0 mi North 3.5 mph - N/A   Overcast
3:35 AM 63.7 °F 61.3 °F 92% 30.11 in 10.0 mi North 3.5 mph - N/A   Overcast
3:55 AM 63.3 °F 61.2 °F 93% 30.11 in 10.0 mi North 3.5 mph - N/A   Scattered Clouds
4:15 AM 62.6 °F 60.6 °F 93% 30.10 in 7.0 mi North 3.5 mph - N/A   Clear
4:35 AM 62.2 °F 60.3 °F 93% 30.10 in 10.0 mi Calm Calm - N/A   Scattered Clouds
4:55 AM 62.1 °F 60.1 °F 93% 30.11 in 7.0 mi NNE 3.5 mph - N/A   Scattered Clouds
5:15 AM 61.2 °F 59.4 °F 94% 30.11 in 7.0 mi North 3.5 mph - N/A   Scattered Clouds
5:35 AM 60.8 °F 59.0 °F 94% 30.11 in 10.0 mi NNE 4.6 mph - N/A   Clear
5:55 AM 60.4 °F 58.5 °F 93% 30.11 in 10.0 mi NNE 4.6 mph - N/A   Clear
6:15 AM 60.1 °F 58.1 °F 93% 30.11 in 10.0 mi NNE 4.6 mph - N/A   Clear
6:35 AM 60.1 °F 57.6 °F 91% 30.12 in 10.0 mi NNE 4.6 mph - N/A   Clear
6:55 AM 59.4 °F 57.4 °F 93% 30.13 in 10.0 mi North 6.9 mph - N/A   Clear
7:15 AM 61.0 °F 58.1 °F 90% 30.13 in 10.0 mi NNE 4.6 mph - N/A   Clear
7:35 AM 61.0 °F 58.5 °F 91% 30.13 in 10.0 mi North 4.6 mph - N/A   Clear
7:55 AM 62.1 °F 59.4 °F 91% 30.14 in 10.0 mi NNE 3.5 mph - N/A   Clear
8:15 AM 64.0 °F 60.8 °F 89% 30.14 in 10.0 mi Calm Calm - N/A   Clear
8:35 AM 66.4 °F 61.5 °F 84% 30.14 in 10.0 mi NE 3.5 mph - N/A   Clear
8:55 AM 67.6 °F 61.2 °F 80% 30.15 in 10.0 mi NE 3.5 mph - N/A   Clear
9:15 AM 69.1 °F 59.9 °F 72% 30.16 in 10.0 mi ENE 3.5 mph - N/A   Clear
9:35 AM 69.4 °F 61.0 °F 74% 30.16 in 10.0 mi NE 4.6 mph - N/A   Clear
9:55 AM 69.1 °F 60.8 °F 75% 30.17 in 10.0 mi NE 4.6 mph - N/A   Clear
10:15 AM 69.8 °F 59.5 °F 70% 30.19 in 10.0 mi Calm Calm - N/A   Clear
10:35 AM 70.5 °F 59.5 °F 68% 30.19 in 10.0 mi NNE 3.5 mph - N/A   Mostly Cloudy
10:55 AM 71.6 °F 58.8 °F 64% 30.19 in 10.0 mi East 3.5 mph - N/A   Mostly Cloudy
11:15 AM 71.8 °F 58.6 °F 63% 30.19 in 10.0 mi Calm Calm - N/A   Mostly Cloudy
11:35 AM 72.7 °F 58.6 °F 61% 30.19 in 10.0 mi ENE 3.5 mph - N/A   Overcast
11:55 AM 73.0 °F 59.0 °F 61% 30.19 in 10.0 mi NE 4.6 mph - N/A   Overcast
12:15 PM 73.0 °F 58.5 °F 60% 30.19 in 10.0 mi Calm Calm - N/A   Mostly Cloudy
12:35 PM 74.8 °F 56.8 °F 53% 30.19 in 10.0 mi East 4.6 mph - N/A   Scattered Clouds
12:55 PM 76.6 °F 57.0 °F 51% 30.18 in 10.0 mi NE 8.1 mph - N/A   Scattered Clouds
1:15 PM 76.6 °F 54.7 °F 46% 30.19 in 10.0 mi ENE 3.5 mph - N/A   Mostly Cloudy
1:35 PM 75.0 °F 57.2 °F 54% 30.17 in 10.0 mi NE 6.9 mph - N/A   Overcast
1:55 PM 76.6 °F 57.9 °F 52% 30.17 in 10.0 mi NE 5.8 mph - N/A   Overcast
2:15 PM 74.8 °F 58.5 °F 57% 30.17 in 10.0 mi NE 4.6 mph - N/A   Mostly Cloudy
2:35 PM 76.1 °F 57.4 °F 52% 30.17 in 10.0 mi NE 3.5 mph - N/A   Scattered Clouds
2:55 PM 76.1 °F 57.4 °F 52% 30.16 in 10.0 mi East 5.8 mph - N/A   Clear
3:15 PM 77.0 °F 56.5 °F 49% 30.15 in 10.0 mi NNE 5.8 mph - N/A   Clear
3:35 PM 78.1 °F 56.7 °F 48% 30.15 in 10.0 mi Calm Calm - N/A   Clear
3:55 PM 77.7 °F 56.7 °F 48% 30.15 in 10.0 mi ENE 5.8 mph - N/A   Clear
4:15 PM 77.9 °F 55.9 °F 47% 30.15 in 10.0 mi Calm Calm - N/A   Clear
4:35 PM 79.0 °F 55.9 °F 45% 30.14 in 10.0 mi East 4.6 mph - N/A   Clear
4:55 PM 78.6 °F 55.9 °F 46% 30.13 in 10.0 mi NNE 4.6 mph - N/A   Clear
5:15 PM 77.9 °F 55.9 °F 47% 30.13 in 10.0 mi NE 5.8 mph - N/A   Clear
5:35 PM 79.5 °F 55.4 °F 43% 30.13 in 10.0 mi NE 4.6 mph - N/A   Clear
5:55 PM 77.2 °F 56.7 °F 49% 30.13 in 10.0 mi ENE 3.5 mph - N/A   Clear
6:55 PM 77.0 °F 60.4 °F 56% 30.12 in 10.0 mi NNE 4.6 mph - N/A   Scattered Clouds
7:15 PM 76.1 °F 60.8 °F 59% 30.12 in 10.0 mi NE 3.5 mph - N/A   Scattered Clouds
7:35 PM 73.9 °F 61.7 °F 65% 30.12 in 10.0 mi NNE 4.6 mph - N/A   Clear
7:55 PM 72.5 °F 61.5 °F 68% 30.12 in 10.0 mi NNE 4.6 mph - N/A   Clear
8:15 PM 70.0 °F 62.8 °F 78% 30.12 in 10.0 mi NNE 5.8 mph - N/A   Clear
8:35 PM 68.4 °F 61.7 °F 79% 30.13 in 10.0 mi NNE 6.9 mph - N/A   Clear
8:55 PM 65.8 °F 61.7 °F 86% 30.13 in 10.0 mi NNE 5.8 mph - N/A   Clear
9:15 PM 64.6 °F 60.3 °F 86% 30.15 in 10.0 mi North 5.8 mph - N/A   Clear
9:35 PM 64.0 °F 60.1 °F 87% 30.15 in 10.0 mi North 4.6 mph - N/A   Clear
9:55 PM 64.0 °F 60.1 °F 87% 30.16 in 10.0 mi North 4.6 mph - N/A   Clear
10:15 PM 63.5 °F 59.9 °F 88% 30.16 in 10.0 mi North 3.5 mph - N/A   Clear
10:35 PM 62.1 °F 59.0 °F 90% 30.15 in 10.0 mi North 3.5 mph - N/A   Clear
10:55 PM 61.7 °F 59.0 °F 91% 30.15 in 10.0 mi North 3.5 mph - N/A   Clear
11:15 PM 62.1 °F 59.2 °F 90% 30.16 in 10.0 mi NNE 3.5 mph - N/A   Scattered Clouds
11:35 PM 60.8 °F 58.1 °F 91% 30.17 in 10.0 mi NNE 4.6 mph - N/A   Scattered Clouds
11:55 PM 60.4 °F 58.1 °F 92% 30.17 in 10.0 mi North 4.6 mph - N/A   Mostly Cloudy